Monroe, NC

9:17 AM EDT on April 30, 2017 (GMT -0400)
Monroe

Weather History for KEQY - December, 2013

Change the Weather History Date:

Tuesday, December 24, 2013

  Actual Average (KCLT) Record (KCLT)
Temperature  
Mean Temperature 40 °F -  
Max Temperature 48 °F 51 °F 73 °F (2015)
Min Temperature 30 °F 32 °F 6 °F (1983)
Degree Days  
Heating Degree Days 25    
Moisture  
Dew Point 25 °F    
Average Humidity 52    
Maximum Humidity 68    
Minimum Humidity 36    
Precipitation  
Precipitation 0.00 in - - ()
Sea Level Pressure  
Sea Level Pressure 30.31 in    
Wind  
Wind Speed 9 mph (North)    
Max Wind Speed 14 mph    
Max Gust Speed 20 mph    
Visibility 10 miles    
Events      
Averages and records for this station are not official NWS values.
T = Trace of Precipitation, MM = Missing Value Source: NWS Daily Summary

Daily Weather History Graph

Daily Weather History Graph

Search for Another Location

Airport or City:

Trip Planner

Search our weather history database for the weather conditions in past years. The results will help you decide how hot, cold, wet, or windy it might be!

Date:

Astronomy

Dec. 24, 2013 Rise Set
Actual Time 7:28 AM EST 5:16 PM EST
Civil Twilight 6:59 AM EST 5:44 PM EST
Nautical Twilight 6:28 AM EST 6:16 PM EST
Astronomical Twilight 5:57 AM EST 6:47 PM EST
Moon No Moon Rise 11:36 AM EST (12/24)
Length of Visible Light 10h 44m
Length of Day
9h 48m
Waning Gibbous, 59% of the Moon is Illuminated
Dec 24
Waning Gibbous
Dec 25
Last Quarter
Jan 1
New
Jan 7
First Quarter
Jan 15
Full

Hourly Weather History & Observations

Time (EST) Temp. Windchill Dew Point Humidity Pressure Visibility Wind Dir Wind Speed Gust Speed Precip Events Conditions
12:53 AM 46.0 °F 40.6 °F 34.0 °F 63% 30.19 in 10.0 mi North 11.5 mph - N/A   Overcast
1:53 AM 45.0 °F 40.1 °F 34.0 °F 65% 30.18 in 10.0 mi North 9.2 mph - N/A   Mostly Cloudy
2:53 AM 43.0 °F 38.2 °F 33.1 °F 68% 30.19 in 10.0 mi North 8.1 mph - N/A   Mostly Cloudy
3:53 AM 43.0 °F 38.2 °F 30.9 °F 62% 30.20 in 10.0 mi North 8.1 mph - N/A   Overcast
4:53 AM 42.1 °F 37.1 °F 28.9 °F 60% 30.22 in 10.0 mi NNW 8.1 mph - N/A   Overcast
5:53 AM 39.9 °F 36.7 °F 28.0 °F 63% 30.23 in 10.0 mi North 4.6 mph - N/A   Partly Cloudy
6:19 AM 39.2 °F 35.0 °F 28.4 °F 65% 30.19 in 10.0 mi North 5.8 mph - N/A   Mostly Cloudy
6:53 AM 41.0 °F 36.4 °F 28.0 °F 60% 30.25 in 10.0 mi NNW 6.9 mph - N/A   Overcast
7:53 AM 39.9 °F 34.5 °F 28.0 °F 63% 30.29 in 10.0 mi NNW 8.1 mph - N/A   Overcast
8:51 AM 41.0 °F 35.2 °F 26.6 °F 57% 30.26 in 10.0 mi North 9.2 mph - N/A   Scattered Clouds
8:53 AM 41.0 °F 35.8 °F 28.0 °F 60% 30.30 in 10.0 mi North 8.1 mph - N/A   Scattered Clouds
9:53 AM 43.0 °F 38.2 °F 26.1 °F 51% 30.32 in 10.0 mi North 8.1 mph - N/A   Partly Cloudy
10:53 AM 46.0 °F 41.4 °F 26.1 °F 46% 30.32 in 10.0 mi North 9.2 mph - N/A   Scattered Clouds
11:53 AM 46.9 °F - 27.0 °F 46% 30.30 in 10.0 mi NNW 8.1 mph - N/A   Clear
12:53 PM 48.9 °F - 28.9 °F 46% 30.29 in 10.0 mi NNW 9.2 mph 17.3 mph N/A   Clear
1:53 PM 48.0 °F - 28.0 °F 46% 30.29 in 10.0 mi NNW 12.7 mph 19.6 mph N/A   Clear
2:53 PM 48.9 °F - 27.0 °F 43% 30.30 in 10.0 mi North 11.5 mph - N/A   Clear
3:53 PM 48.0 °F - 23.0 °F 37% 30.32 in 10.0 mi NNW 12.7 mph 18.4 mph N/A   Clear
4:53 PM 45.0 °F 40.6 °F 19.0 °F 36% 30.35 in 10.0 mi NNW 8.1 mph - N/A   Clear
5:53 PM 41.0 °F 35.2 °F 19.0 °F 41% 30.39 in 10.0 mi NNW 9.2 mph - N/A   Clear
6:53 PM 39.0 °F 32.8 °F 17.1 °F 41% 30.41 in 10.0 mi North 9.2 mph - N/A   Clear
7:53 PM 37.9 °F 29.6 °F 18.0 °F 45% 30.43 in 10.0 mi North 13.8 mph - N/A   Clear
8:53 PM 36.0 °F 29.6 °F 18.0 °F 48% 30.46 in 10.0 mi North 8.1 mph - N/A   Clear
9:53 PM 34.0 °F 26.0 °F 17.1 °F 50% 30.47 in 10.0 mi North 10.4 mph - N/A   Clear
10:53 PM 32.0 °F 22.5 °F 15.1 °F 50% 30.48 in 10.0 mi NNE 12.7 mph - N/A   Clear
11:53 PM 30.9 °F 22.2 °F 15.1 °F 52% 30.48 in 10.0 mi North 10.4 mph - N/A   Clear